Regional Weather Roundup
Issued by NWS

Home | Current Version | Previous Version | Text Only | Print | Product List | Glossary Off
Versions: 1 2 3 4 5 6 7 8 9 10 11 12 13 14 15 16 17 18 19 20 21 22 23 24 25 26 27 28 29 30 31 32 33 34 35 36 37 38 39 40 41 42 43 44 45 46 47 48 49 50

000
ASUS45 KCYS 180710
RWRWY

WYOMING REGIONAL WEATHER ROUNDUP
NATIONAL WEATHER SERVICE CHEYENNE WY
1200 AM MST SAT NOV 18 2017

NOTE:  "FAIR" INDICATES FEW OR NO CLOUDS BELOW 12,000 FEET
WITH NO SIGNIFICANT WEATHER AND/OR OBSTRUCTIONS TO VISIBILITY.

WYZ001-180800-
YELLOWSTONE NATIONAL PARK

CITY           SKY/WX    TMP DP  RH WIND       PRES   REMARKS
LK YELLOWSTONE   N/A      0  -3  87 CALM      30.14R
W YELLOWSTONE  NOT AVBL

$$
WYZ002>013-054>058-071-098>099-180800-
NORTHERN WYOMING

CITY           SKY/WX    TMP DP  RH WIND       PRES   REMARKS
JACKSON        FAIR      17   9  70 S5        30.18R WCI  10
CODY           FAIR      30  12  47 W12G18    30.06R WCI  20
GREYBULL       FAIR      27  19  72 S6        30.07R WCI  20
WORLAND        FAIR      22  19  89 SW6       30.08R WCI  14
SHERIDAN       FAIR      30  17  58 W13       30.02R WCI  20
BUFFALO        FAIR      26   8  46 NW10      30.01R WCI  16
GILLETTE       MOCLDY    31  20  63 W17G26    29.99R WCI  19
HULETT         CLOUDY    32  23  69 W6        29.96R WCI  26
NEWCASTLE      FAIR      30  25  80 NW12      29.97R WCI  21

$$
WYZ014>020-022>026-101>103-180800-
CENTRAL WYOMING

CITY           SKY/WX    TMP DP  RH WIND       PRES   REMARKS
BIG PINEY      FAIR      10   3  73 N8        30.16R WCI  -2
PINEDALE       FAIR      10   7  85 NW7       30.14S WCI   0
DUBOIS         FAIR      19   7  58 W22G33    30.08R WCI   3
LANDER         FAIR      28   5  37 NW13      30.07R WCI  17
RIVERTON       FAIR      28   9  44 NW26G38   30.07R WCI  13
CASPER         CLOUDY    25  21  85 W8        30.04R WCI  16
DOUGLAS        FAIR      28  26  92 NW15      30.00R WCI  16

$$
WYZ021-027>030-104>119-180800-
SOUTHERN WYOMING

CITY           SKY/WX    TMP DP  RH WIND       PRES   REMARKS
EVANSTON       FAIR      15  12  88 SW10      30.25R WCI   2
FORT BRIDGER   FAIR      19  17  89 W17       30.25R WCI   4
ROCK SPRINGS   FAIR      19  15  84 W18       30.17R WCI   4
DIXON          PTSUNNY   22  18  83 W10       30.18R WCI  11
RAWLINS        MOCLDY    23  20  88 SW12      30.08R WCI  12
SARATOGA       CLOUDY    23  19  86 W6        30.09R WCI  16
LARAMIE        LGT SNOW  21  20  96 NW25      29.98R FOG     WCI   4
CHEYENNE       SNOW      27  25  92 N30G41    29.95R VSB 1/2 WCI  11
TORRINGTON     CLOUDY    36  25  64 NW16      29.93R WCI  26
PINE BLUFFS    RAIN      32  30  93 N25G33    29.93R WCI  19

$$



USA.gov is the U.S. government's official web portal to all federal, state and local government web resources and services.